This is the latest recevied weather packets stored in our database for station/object EA6MW-10. If no packets are shown the sender has not sent any weather packets the latest 10 day(s).
| Time | Temp. | Humidity | Pressure | Rain* | Wind** | Luminosity | Snow |
|---|---|---|---|---|---|---|---|
| 1778047778 | 16.11° C | 85% | 1013.2 hPa | - | - | - | - |
| 1778046878 | 12.22° C | 95% | 1013.3 hPa | - | - | - | - |
| 1778045978 | 11.67° C | 96% | 1013.1 hPa | - | - | - | - |
| 1778045078 | 11.11° C | 96% | 1012.8 hPa | - | - | - | - |
| 1778044177 | 11.11° C | 96% | 1012.8 hPa | - | - | - | - |
| 1778043277 | 10.56° C | 95% | 1012.6 hPa | - | - | - | - |
| 1778042377 | 10.56° C | 96% | 1012.6 hPa | - | - | - | - |
| 1778041477 | 10.56° C | 95% | 1012.6 hPa | - | - | - | - |
| 1778040577 | 10.56° C | 95% | 1012.4 hPa | - | - | - | - |
| 1778039677 | 10.56° C | 94% | 1012.4 hPa | - | - | - | - |
| 1778038776 | 11.11° C | 94% | 1012.3 hPa | - | - | - | - |
| 1778037876 | 11.11° C | 93% | 1012.2 hPa | - | - | - | - |
| 1778036976 | 11.11° C | 92% | 1012.2 hPa | - | - | - | - |
| 1778036075 | 11.67° C | 90% | 1012 hPa | - | - | - | - |
| 1778035175 | 11.67° C | 91% | 1012.1 hPa | - | - | - | - |
| 1778034275 | 11.67° C | 93% | 1012 hPa | - | - | - | - |
| 1778033375 | 12.22° C | 91% | 1011.9 hPa | - | - | - | - |
| 1778032475 | 12.78° C | 92% | 1012.1 hPa | - | - | - | - |
| 1778031574 | 12.78° C | 92% | 1012.1 hPa | - | - | - | - |
| 1778030674 | 13.33° C | 91% | 1012.1 hPa | - | - | - | - |
| 1778029774 | 13.33° C | 94% | 1012.2 hPa | - | - | - | - |
| 1778028873 | 13.89° C | 97% | 1012.4 hPa | - | - | - | - |
| 1778027973 | 13.89° C | 98% | 1012.5 hPa | - | - | - | - |
| 1778027073 | 14.44° C | 97% | 1012.7 hPa | - | - | - | - |
| 1778026173 | 15° C | 97% | 1012.9 hPa | - | - | - | - |
* Rain since midnight (hover to see other rain measurements)
** Current wind speed in m/s (hover to see current wind gust speed)